FW3572 Weather Reports


Display with metric or nautical units.
time (UTC)temp
F
wind
direction
speed
MPH
gust
MPH
rain 1hr
in
rain 24hr
in
rain mn
in
humidity
%
barometer
mb
20260905165011 92 195 1.0 6.0 0.00 0.03 0.00 100 1015.5
20260905164507 93 240 2.0 7.0 0.00 0.03 0.00 100 1015.6
20260905164008 92 307 1.0 10.0 0.00 0.03 0.00 100 1015.6
20260905163504 91 242 4.0 12.0 0.00 0.03 0.00 100 1015.7
20260905163002 91 250 4.0 12.0 0.00 0.03 0.00 100 1015.8
20260905162501 91 288 1.0 9.0 0.00 0.03 0.00 100 1015.8
20260905162000 91 247 1.0 10.0 0.00 0.03 0.00 100 1016.0
20260905161605 91 297 1.0 10.0 0.00 0.03 0.00 100 1016.1
20260905161100 91 257 3.0 8.0 0.00 0.03 0.00 100 1016.2
20260905160600 91 167 2.0 8.0 0.00 0.03 0.00 100 1016.2
20260905160100 91 233 3.0 8.0 0.00 0.03 0.00 100 1016.2
20260905155558 91 294 3.0 8.0 0.00 0.03 0.00 100 1016.2
20260905155056 90 227 4.0 10.0 0.00 0.03 0.00 100 1016.3
20260905154616 89 244 4.0 11.0 0.00 0.03 0.00 100 1016.3
20260905154056 88 244 4.0 13.0 0.00 0.03 0.00 100 1016.4
20260905153552 88 246 6.0 13.0 0.00 0.03 0.00 100 1016.5
20260905153052 88 211 2.0 9.0 0.00 0.03 0.00 100 1016.5
20260905152551 89 238 3.0 12.0 0.00 0.03 0.00 100 1016.6
20260905152047 89 252 5.0 12.0 0.00 0.03 0.00 100 1016.6
20260905151546 88 232 3.0 7.0 0.00 0.03 0.00 100 1016.5
20260905151043 88 150 1.0 7.0 0.00 0.03 0.00 100 1016.7
20260905150542 88 221 2.0 12.0 0.00 0.03 0.00 100 1016.6
20260905150040 88 188 4.0 12.0 0.00 0.03 0.00 100 1016.7
20260905145539 88 235 0.0 11.0 0.00 0.03 0.00 100 1016.6
20260905145037 88 226 3.0 9.0 0.00 0.03 0.00 100 1016.6
20260905144536 88 231 2.0 8.0 0.00 0.03 0.00 100 1016.5
20260905144035 87 191 1.0 10.0 0.00 0.03 0.00 100 1016.5
20260905143533 86 202 4.0 10.0 0.00 0.03 0.00 100 1016.6
20260905143033 86 216 2.0 10.0 0.00 0.03 0.00 100 1016.6
20260905142529 86 219 3.0 13.0 0.00 0.03 0.00 100 1016.6
20260905142028 86 234 6.0 13.0 0.00 0.03 0.00 100 1016.6
20260905141533 86 225 1.0 8.0 0.00 0.03 0.00 100 1016.5
20260905141026 86 177 4.0 9.0 0.00 0.03 0.00 100 1016.5
20260905140523 86 159 3.0 7.0 0.00 0.03 0.00 100 1016.6
20260905140024 86 184 2.0 7.0 0.00 0.03 0.00 100 1016.7
20260905135520 85 212 2.0 8.0 0.00 0.03 0.00 100 1016.8
20260905135021 85 185 2.0 8.0 0.00 0.03 0.00 100 1016.7
20260905134517 85 215 1.0 5.0 0.00 0.03 0.00 100 1016.6
20260905134016 84 236 1.0 7.0 0.00 0.03 0.00 100 1016.7
20260905133516 84 188 1.0 7.0 0.00 0.03 0.00 100 1016.6
20260905133016 84 229 2.0 5.0 0.00 0.03 0.00 100 1016.6
20260905132514 84 218 1.0 7.0 0.00 0.03 0.00 100 1016.6
20260905132013 83 200 1.0 5.0 0.00 0.03 0.00 100 1016.6
20260905131513 83 207 2.0 5.0 0.00 0.03 0.00 100 1016.6
20260905131012 83 232 1.0 4.0 0.00 0.03 0.00 100 1016.6
20260905130514 83 202 0.0 5.0 0.00 0.03 0.00 100 1016.7
20260905130012 82 253 2.0 6.0 0.00 0.03 0.00 100 1016.6
20260905125511 82 224 0.0 3.0 0.00 0.03 0.00 100 1016.7
20260905125011 82 223 0.0 3.0 0.00 0.03 0.00 100 1016.7
20260905124511 81 221 0.0 0.0 0.00 0.03 0.00 100 1016.7
20260905124010 81 225 0.0 3.0 0.00 0.03 0.00 100 1016.6
20260905123511 81 225 0.0 3.0 0.00 0.03 0.00 100 1016.7
20260905123016 80 225 0.0 4.0 0.00 0.03 0.00 100 1016.7
20260905122513 80 223 0.0 4.0 0.00 0.03 0.00 100 1016.6
20260905122010 79 222 0.0 4.0 0.00 0.03 0.00 100 1016.6
20260905121510 79 207 0.0 0.0 0.00 0.03 0.00 100 1016.7
20260905121010 79 207 0.0 0.0 0.00 0.03 0.00 100 1016.7
20260905120512 79 207 0.0 0.0 0.00 0.03 0.00 100 1016.4
20260905120009 79 207 0.0 0.0 0.00 0.03 0.00 100 1016.5
20260905115509 79 207 0.0 0.0 0.00 0.03 0.00 100 1016.5
20260905115009 79 207 0.0 0.0 0.00 0.03 0.00 100 1016.4
20260905114510 79 207 0.0 0.0 0.00 0.03 0.00 100 1016.3
20260905114009 79 207 0.0 0.0 0.00 0.03 0.00 100 1016.3
20260905113509 79 207 0.0 0.0 0.00 0.03 0.00 100 1016.2
20260905113008 79 207 0.0 0.0 0.00 0.03 0.00 100 1016.1
20260905112509 79 207 0.0 0.0 0.00 0.03 0.00 100 1016.1
20260905112013 79 207 0.0 0.0 0.00 0.03 0.00 100 1016.1
20260905111508 79 207 0.0 0.0 0.00 0.03 0.00 100 1016.0
20260905111007 78 207 0.0 0.0 0.00 0.03 0.00 100 1016.0
20260905110511 78 207 0.0 0.0 0.00 0.03 0.00 100 1015.9
20260905110008 79 207 0.0 0.0 0.00 0.03 0.00 100 1015.9
20260905105506 79 207 0.0 0.0 0.00 0.03 0.00 100 1015.9
20260905105009 78 206 0.0 0.0 0.00 0.03 0.00 100 1015.7
20260905104506 79 206 0.0 0.0 0.00 0.03 0.00 100 1015.7
20260905104010 78 206 0.0 0.0 0.00 0.03 0.00 100 1015.6
20260905103505 78 206 0.0 0.0 0.00 0.03 0.00 100 1015.6
20260905103004 78 206 0.0 0.0 0.00 0.03 0.00 100 1015.6
20260905102505 79 206 0.0 0.0 0.00 0.03 0.00 100 1015.6
20260905102009 79 206 0.0 0.0 0.00 0.03 0.00 100 1015.7
20260905101502 79 206 0.0 0.0 0.00 0.03 0.00 100 1015.7
20260905101002 79 206 0.0 0.0 0.00 0.03 0.00 100 1015.6
20260905100502 79 206 0.0 0.0 0.00 0.03 0.00 100 1015.6
20260905100004 79 206 0.0 0.0 0.00 0.03 0.00 100 1015.5
20260905095501 79 206 0.0 0.0 0.00 0.03 0.00 100 1015.5
20260905095003 79 206 0.0 0.0 0.00 0.03 0.00 100 1015.7
20260905094500 79 206 0.0 0.0 0.00 0.03 0.00 100 1015.6
20260905094001 79 206 0.0 0.0 0.00 0.03 0.00 100 1015.6
20260905093501 79 206 0.0 0.0 0.00 0.03 0.00 100 1015.7
20260905093001 79 206 0.0 0.0 0.00 0.03 0.00 100 1015.7
20260905092602 79 206 0.0 0.0 0.00 0.03 0.00 100 1015.7
20260905092100 79 206 0.0 0.0 0.00 0.03 0.00 100 1015.6
20260905091636 79 206 0.0 0.0 0.00 0.03 0.00 100 1015.5
20260905091101 79 206 0.0 0.0 0.00 0.03 0.00 100 1015.6
20260905090600 79 206 0.0 0.0 0.00 0.03 0.00 100 1015.7
20260905090100 79 206 0.0 0.0 0.00 0.03 0.00 100 1015.6
20260905085600 79 206 0.0 0.0 0.00 0.03 0.00 100 1015.5
20260905085059 79 206 0.0 0.0 0.00 0.03 0.00 100 1015.5
20260905084613 79 205 0.0 0.0 0.00 0.03 0.00 100 1015.6
20260905084059 79 205 0.0 1.0 0.00 0.03 0.00 100 1015.6
20260905083559 79 205 0.0 2.0 0.00 0.03 0.00 100 1015.5
20260905083059 79 205 0.0 2.0 0.00 0.03 0.00 100 1015.5
20260905082558 79 208 0.0 2.0 0.00 0.03 0.00 100 1015.5
20260905082059 79 209 0.0 2.0 0.00 0.03 0.00 100 1015.5
20260905081558 79 209 0.0 0.0 0.00 0.03 0.00 100 1015.6
20260905081057 79 210 0.0 0.0 0.00 0.03 0.00 100 1015.6
20260905080558 79 210 0.0 0.0 0.00 0.03 0.00 100 1015.6
20260905080106 79 210 0.0 0.0 0.00 0.03 0.00 100 1015.6
20260905075557 79 210 0.0 0.0 0.00 0.03 0.00 100 1015.6
20260905075101 79 209 0.0 0.0 0.00 0.03 0.00 100 1015.7
20260905074614 79 209 0.0 1.0 0.00 0.03 0.00 100 1015.6
20260905074057 79 209 0.0 2.0 0.00 0.03 0.00 100 1015.7
20260905073655 79 209 0.0 2.0 0.00 0.03 0.00 100 1015.8
20260905073055 79 209 0.0 2.0 0.00 0.03 0.00 100 1015.7
20260905072556 79 209 0.0 2.0 0.00 0.03 0.00 100 1015.7
20260905072054 80 209 0.0 0.0 0.00 0.03 0.00 100 1015.7
20260905071555 80 209 0.0 1.0 0.00 0.03 0.00 100 1015.5
20260905071054 80 209 0.0 2.0 0.00 0.03 0.00 100 1015.6
20260905070553 80 209 0.0 2.0 0.00 0.03 0.00 100 1015.7
20260905070107 80 209 0.0 2.0 0.00 0.03 0.00 100 1015.7
20260905065552 80 209 0.0 2.0 0.00 0.03 0.00 100 1015.8
20260905065051 80 209 0.0 2.0 0.00 0.03 0.00 100 1015.8
20260905064551 80 209 0.0 2.0 0.00 0.03 0.00 100 1015.8
20260905064051 80 209 0.0 3.0 0.00 0.03 0.00 100 1015.8
20260905063550 80 209 0.0 3.0 0.00 0.03 0.00 100 1015.9
20260905063049 80 208 0.0 0.0 0.00 0.03 0.00 100 1016.0
20260905062549 80 208 0.0 0.0 0.00 0.03 0.00 100 1016.1
20260905062049 80 208 0.0 0.0 0.00 0.03 0.00 100 1016.1
20260905061600 80 208 0.0 0.0 0.00 0.03 0.00 100 1016.1
20260905061048 81 208 0.0 0.0 0.00 0.03 0.00 100 1016.2
20260905060547 81 208 0.0 0.0 0.00 0.03 0.00 100 1016.2
20260905060047 81 208 0.0 0.0 0.00 0.03 0.00 100 1016.2
20260905055545 81 208 0.0 0.0 0.00 0.03 0.00 100 1016.5
20260905055044 81 208 0.0 0.0 0.00 0.03 0.00 100 1016.5
20260905054550 81 208 0.0 0.0 0.00 0.03 0.00 100 1016.6
20260905054044 81 208 0.0 0.0 0.00 0.03 0.00 100 1016.7
20260905053542 81 208 0.0 0.0 0.00 0.03 0.00 100 1016.7
20260905053045 81 208 0.0 0.0 0.00 0.03 0.00 100 1016.8
20260905052540 81 208 0.0 0.0 0.00 0.03 0.00 100 1016.9
20260905052043 82 208 0.0 0.0 0.00 0.03 0.00 100 1017.0
20260905051544 82 208 0.0 0.0 0.00 0.03 0.00 100 1017.0
20260905051039 82 208 0.0 0.0 0.00 0.03 0.00 100 1017.0
20260905050541 82 207 0.0 0.0 0.00 0.03 0.00 100 1017.1
20260905050045 82 207 0.0 0.0 0.00 0.03 0.00 100 1017.2
20260905045540 82 207 0.0 0.0 0.00 0.03 0.00 100 1017.3
20260905045038 82 207 0.0 0.0 0.00 0.03 0.00 100 1017.1
20260905044540 82 207 0.0 0.0 0.00 0.03 0.00 100 1017.2
20260905044041 82 207 0.0 0.0 0.00 0.03 0.00 100 1017.1
20260905043537 82 207 0.0 0.0 0.00 0.03 0.00 100 1017.1
20260905043039 82 207 0.0 0.0 0.00 0.03 0.00 100 1017.1
20260905042540 82 207 0.0 0.0 0.00 0.03 0.00 100 1017.0
20260905042035 82 205 0.0 0.0 0.00 0.03 0.00 100 1017.1
20260905041541 82 159 0.0 2.0 0.00 0.03 0.00 100 1017.1
20260905041035 83 159 0.0 5.0 0.00 0.03 0.00 100 1017.1
20260905040535 83 135 0.0 7.0 0.00 0.03 0.00 100 1017.1
20260905040036 83 163 2.0 7.0 0.00 0.03 0.00 100 1017.0
20260905035535 83 167 1.0 5.0 0.00 0.03 0.00 100 1017.1
20260905035033 82 162 1.0 5.0 0.00 0.03 0.00 100 1017.2
20260905034538 83 166 1.0 5.0 0.00 0.03 0.03 100 1017.2
20260905034032 83 166 2.0 5.0 0.00 0.03 0.03 100 1017.3
20260905033534 83 165 1.0 5.0 0.00 0.03 0.03 100 1017.3
20260905033043 83 164 1.0 5.0 0.00 0.03 0.03 100 1017.2
20260905032533 83 161 1.0 5.0 0.00 0.03 0.03 100 1017.1
20260905032032 83 161 1.0 5.0 0.00 0.03 0.03 100 1017.1
20260905031539 83 162 1.0 5.0 0.00 0.03 0.03 100 1017.1
20260905031034 83 163 2.0 5.0 0.00 0.03 0.03 100 1017.1
20260905030532 83 166 1.0 4.0 0.00 0.03 0.03 100 1017.1
20260905030039 83 184 1.0 3.0 0.00 0.03 0.03 100 1017.1
20260905025532 83 185 1.0 4.0 0.00 0.03 0.03 100 1017.2
20260905025031 83 187 1.0 4.0 0.00 0.03 0.03 100 1017.1
20260905024531 83 192 0.0 2.0 0.00 0.03 0.03 100 1017.0
20260905024030 83 192 0.0 3.0 0.00 0.03 0.03 100 1016.9
20260905023531 83 194 1.0 3.0 0.00 0.03 0.03 100 1017.0
20260905023033 83 194 0.0 2.0 0.00 0.03 0.03 100 1017.1
20260905022534 83 194 0.0 2.0 0.00 0.03 0.03 100 1017.0
20260905022033 83 194 0.0 2.0 0.00 0.03 0.03 100 1017.1
20260905021531 83 194 1.0 2.0 0.00 0.03 0.03 100 1017.2
20260905021032 83 195 0.0 2.0 0.00 0.03 0.03 100 1017.2
20260905020631 83 195 0.0 2.0 0.00 0.03 0.03 100 1017.2
20260905020030 84 194 0.0 3.0 0.00 0.03 0.03 100 1017.2
20260905015529 84 194 0.0 3.0 0.00 0.03 0.03 100 1017.1
20260905015033 84 194 0.0 0.0 0.00 0.03 0.03 100 1017.1
20260905014529 84 194 0.0 0.0 0.00 0.03 0.03 100 1017.1
20260905014028 84 194 0.0 0.0 0.00 0.03 0.03 100 1017.0
20260905013532 84 194 0.0 0.0 0.00 0.03 0.03 100 1017.0
20260905013028 84 194 0.0 0.0 0.00 0.03 0.03 100 1017.0
20260905012528 84 194 0.0 2.0 0.00 0.03 0.03 100 1017.0
20260905012029 84 194 0.0 2.0 0.00 0.03 0.03 100 1017.1
20260905011528 84 194 0.0 2.0 0.00 0.03 0.03 100 1017.1
20260905011028 84 192 0.0 2.0 0.00 0.03 0.03 100 1017.0
20260905010529 84 192 0.0 4.0 0.00 0.03 0.03 100 1017.1
20260905010028 84 191 1.0 4.0 0.00 0.03 0.03 100 1016.9
20260905005528 85 186 1.0 3.0 0.00 0.03 0.03 100 1016.9
20260905005027 85 221 1.0 4.0 0.00 0.03 0.03 100 1016.9
20260905004528 85 192 1.0 5.0 0.00 0.03 0.03 100 1016.8
20260905004030 85 191 1.0 8.0 0.00 0.03 0.03 100 1016.8
20260905003530 85 200 2.0 8.0 0.00 0.03 0.03 100 1016.9
20260905003027 85 167 4.0 8.0 0.00 0.03 0.03 100 1016.9
20260905002525 85 144 3.0 8.0 0.00 0.03 0.03 100 1016.7
20260905002027 85 163 2.0 8.0 0.00 0.03 0.03 100 1016.7
20260905001527 85 166 4.0 9.0 0.00 0.03 0.03 100 1016.6
20260905001025 85 132 3.0 9.0 0.00 0.03 0.03 100 1016.6
20260905000526 85 139 4.0 9.0 0.00 0.03 0.03 100 1016.5
20260905000026 85 142 3.0 11.0 0.00 0.03 0.03 100 1016.6
20260904235526 85 169 6.0 11.0 0.00 0.03 0.03 100 1016.5
20260904235025 85 176 2.0 10.0 0.00 0.03 0.03 100 1016.3
20260904234536 85 168 5.0 10.0 0.00 0.03 0.03 100 1016.2
20260904234025 85 150 3.0 12.0 0.00 0.03 0.03 100 1016.2
20260904233524 85 167 4.0 12.0 0.00 0.03 0.03 100 1016.2
20260904233025 85 153 6.0 13.0 0.00 0.03 0.03 100 1016.1
20260904232524 85 163 3.0 9.0 0.00 0.03 0.03 100 1016.0
20260904232026 85 184 3.0 13.0 0.00 0.03 0.03 100 1016.2
20260904231524 85 184 6.0 13.0 0.00 0.03 0.03 100 1016.2
20260904231023 86 165 4.0 12.0 0.00 0.03 0.03 100 1016.0
20260904230524 86 141 6.0 15.0 0.00 0.03 0.03 100 1016.0
20260904230023 86 168 5.0 18.0 0.00 0.03 0.03 100 1016.0
20260904225522 86 153 11.0 18.0 0.00 0.03 0.03 100 1016.1
20260904225025 86 157 6.0 14.0 0.00 0.03 0.03 100 1016.0
20260904224522 86 128 2.0 14.0 0.00 0.03 0.03 100 1015.8
20260904224026 86 140 5.0 16.0 0.00 0.03 0.03 100 1015.6
20260904223522 86 139 7.0 16.0 0.00 0.03 0.03 100 1015.5
20260904223022 86 159 5.0 13.0 0.00 0.03 0.03 100 1015.5
20260904222521 86 186 9.0 13.0 0.00 0.03 0.03 100 1015.5
20260904222021 86 146 8.0 16.0 0.00 0.03 0.03 100 1015.6
20260904221523 86 150 7.0 16.0 0.00 0.03 0.03 100 1015.6
20260904221022 87 158 5.0 14.0 0.00 0.03 0.03 100 1015.5
20260904220523 87 158 6.0 18.0 0.00 0.03 0.03 100 1015.4
20260904220021 87 142 7.0 18.0 0.00 0.03 0.03 100 1015.5
20260904215519 87 153 6.0 15.0 0.00 0.03 0.03 100 1015.6
20260904215019 87 156 5.0 18.0 0.00 0.03 0.03 100 1015.5
20260904214522 87 167 7.0 18.0 0.00 0.03 0.03 100 1015.7
20260904214019 87 138 6.0 17.0 0.00 0.03 0.03 100 1015.7
20260904213519 88 143 4.0 15.0 0.00 0.03 0.03 100 1015.7
20260904213018 87 146 8.0 16.0 0.00 0.03 0.03 100 1015.8
20260904212518 87 136 8.0 18.0 0.00 0.03 0.03 100 1015.8
20260904212019 88 145 10.0 18.0 0.00 0.03 0.03 100 1015.8
20260904211518 88 142 7.0 15.0 0.00 0.03 0.03 100 1015.9
20260904211018 88 151 7.0 15.0 0.00 0.03 0.03 100 1016.1
20260904210520 88 167 6.0 14.0 0.00 0.03 0.03 100 1016.2
20260904210019 87 126 7.0 14.0 0.00 0.03 0.03 100 1016.2
20260904205517 87 159 8.0 16.0 0.00 0.03 0.03 100 1016.1
20260904205016 87 136 9.0 17.0 0.00 0.03 0.03 100 1016.2
20260904204518 88 168 7.0 14.0 0.00 0.03 0.03 100 1016.2
20260904204015 88 150 8.0 16.0 0.00 0.03 0.03 100 1016.4
20260904203515 88 132 8.0 16.0 0.00 0.03 0.03 100 1016.3
20260904203016 88 149 4.0 15.0 0.00 0.03 0.03 100 1016.2
20260904202517 87 144 5.0 15.0 0.00 0.03 0.03 100 1016.2
20260904202017 87 146 6.0 13.0 0.00 0.03 0.03 100 1016.1
20260904201513 87 185 3.0 13.0 0.00 0.03 0.03 100 1016.0
20260904201014 87 121 3.0 13.0 0.00 0.03 0.03 100 1016.0
20260904200518 87 148 5.0 13.0 0.00 0.03 0.03 100 1016.1
20260904200016 87 133 3.0 10.0 0.00 0.03 0.03 100 1016.2
20260904195513 87 122 4.0 12.0 0.00 0.03 0.03 100 1016.3
20260904195012 87 162 5.0 12.0 0.00 0.03 0.03 100 1016.3
20260904194512 88 117 5.0 14.0 0.00 0.03 0.03 100 1016.4
20260904194012 87 159 7.0 14.0 0.01 0.03 0.03 100 1016.4
20260904193513 87 109 4.0 12.0 0.02 0.03 0.03 100 1016.5
20260904193013 86 148 5.0 12.0 0.02 0.03 0.03 100 1016.8
20260904192513 86 151 4.0 11.0 0.02 0.03 0.03 100 1016.9
20260904192016 86 127 4.0 12.0 0.03 0.03 0.03 100 1016.9
20260904191518 86 133 7.0 12.0 0.03 0.03 0.03 100 1016.9
20260904191012 86 157 4.0 12.0 0.03 0.03 0.03 100 1017.0
20260904190512 85 144 3.0 11.0 0.03 0.03 0.03 100 1017.0
20260904190015 84 147 5.0 11.0 0.03 0.03 0.03 100 1017.0
20260904185512 84 144 4.0 10.0 0.03 0.03 0.03 100 1017.1
20260904185012 83 116 2.0 8.0 0.03 0.03 0.03 100 1017.1
20260904184511 82 112 2.0 9.0 0.03 0.03 0.03 100 1017.1
20260904184011 82 184 5.0 9.0 0.02 0.02 0.02 100 1017.3
20260904183511 82 157 4.0 11.0 0.01 0.01 0.01 100 1017.3
20260904183010 82 171 6.0 13.0 0.01 0.01 0.01 100 1017.4
20260904182513 83 179 4.0 16.0 0.01 0.01 0.01 100 1017.4
20260904182011 84 196 7.0 19.0 0.00 0.00 0.00 100 1017.4
20260904181509 85 149 11.0 19.0 0.00 0.00 0.00 100 1017.3
20260904181013 86 157 7.0 15.0 0.00 0.00 0.00 100 1017.4
20260904180510 87 159 6.0 14.0 0.00 0.00 0.00 100 1017.4
20260904180008 88 145 7.0 14.0 0.00 0.00 0.00 100 1017.5
20260904175507 89 115 7.0 15.0 0.00 0.00 0.00 100 1017.6
20260904175005 89 167 7.0 12.0 0.00 0.00 0.00 100 1017.6
20260904174504 89 51 6.0 14.0 0.00 0.00 0.00 100 1017.6
20260904174002 89 165 6.0 14.0 0.00 0.00 0.00 100 1017.6
20260904173501 90 153 4.0 14.0 0.00 0.00 0.00 100 1017.6
20260904173103 89 127 5.0 14.0 0.00 0.00 0.00 100 1017.6
20260904172558 88 132 4.0 13.0 0.00 0.00 0.00 100 1017.6
20260904172057 89 133 3.0 12.0 0.00 0.00 0.00 100 1017.7
20260904171601 89 123 5.0 11.0 0.00 0.00 0.00 100 1017.8
20260904171055 89 122 4.0 15.0 0.00 0.00 0.00 100 1017.7
20260904170552 89 125 6.0 15.0 0.00 0.00 0.00 100 1017.7
20260904170054 89 109 4.0 9.0 0.00 0.00 0.00 100 1017.7
20260904165549 90 110 3.0 11.0 0.00 0.00 0.00 100 1017.8
20260904165048 90 155 5.0 11.0 0.00 0.00 0.00 100 1017.9